DW5244 Weather Reports


time (UTC)temp
F
wind
direction
speed
knots
gust
knots
rain 1hr
in
rain 24hr
in
rain mn
in
humidity
%
barometer
mb
20260904020004 84 338 7.0 8.7 0.00 0.09 0.09 46 1012.3
20260904014506 85 360 6.1 8.7 0.00 0.09 0.09 45 1012.2
20260904013003 85 346 6.1 10.4 0.00 0.09 0.09 45 1012.2
20260904011503 85 360 7.8 11.3 0.00 0.09 0.09 44 1012.0
20260904010001 85 360 9.6 13.0 0.00 0.09 0.09 45 1011.9
20260904004501 85 348 11.3 14.8 0.02 0.09 0.09 45 1011.9
20260904003000 86 360 9.6 13.9 0.06 0.09 0.09 46 1011.9
20260904001600 84 125 11.3 14.8 0.09 0.09 0.09 46 1011.9
20260904000059 80 121 7.8 15.6 0.09 0.09 0.09 58 1012.0
20260903234558 75 360 7.8 11.3 0.07 0.07 0.07 72 1012.0
20260903233056 82 11 6.1 13.0 0.03 0.03 0.03 63 1011.8
20260903231604 92 184 11.3 21.7 0.00 0.00 0.00 32 1011.7
20260903230054 97 209 12.2 20.0 0.00 0.00 0.00 29 1011.7
20260903224553 97 165 3.5 9.6 0.00 0.13 0.00 29 1011.4
20260903223052 97 157 7.0 9.6 0.00 0.13 0.00 29 1011.7
20260903221552 95 130 6.1 13.0 0.00 0.13 0.00 31 1011.6
20260903220058 94 138 7.0 13.0 0.00 0.13 0.00 32 1011.8
20260903214548 93 140 10.4 17.4 0.00 0.13 0.00 32 1011.9
20260903213047 95 360 10.4 18.2 0.00 0.13 0.00 29 1011.8
20260903211548 99 315 1.7 10.4 0.00 0.13 0.00 25 1012.2
20260903210045 98 288 2.6 9.6 0.00 0.13 0.00 25 1012.5
20260903204542 100 289 7.8 11.3 0.00 0.13 0.00 25 1012.6
20260903203039 99 174 2.6 10.4 0.00 0.13 0.00 29 1012.7
20260903201537 99 311 9.6 14.8 0.00 0.13 0.00 26 1012.9
20260903200036 97 251 4.3 8.7 0.00 0.13 0.00 28 1013.1
20260903194533 96 263 6.1 13.9 0.00 0.13 0.00 29 1013.4
20260903193030 97 271 8.7 11.3 0.00 0.13 0.00 27 1013.5
20260903191541 95 288 7.0 10.4 0.00 0.13 0.00 30 1013.7
20260903190025 96 271 3.5 10.4 0.00 0.13 0.00 29 1014.0
20260903184529 96 267 8.7 12.2 0.00 0.13 0.00 30 1014.4
20260903183018 96 302 6.1 12.2 0.00 0.13 0.00 29 1014.8
20260903181514 95 198 1.7 7.0 0.00 0.13 0.00 34 1015.1
20260903180011 95 265 3.5 8.7 0.00 0.13 0.00 31 1015.4
20260903174507 93 225 0.9 5.2 0.00 0.13 0.00 34 1015.7
20260903173011 93 229 2.6 7.8 0.00 0.13 0.00 36 1016.0
20260903171614 90 256 2.6 6.1 0.00 0.13 0.00 36 1016.2
20260903170056 90 244 0.9 3.5 0.00 0.13 0.00 38 1016.5
20260903164603 88 240 0.9 4.3 0.00 0.13 0.00 42 1016.6
20260903163050 87 351 0.9 3.5 0.00 0.13 0.00 43 1016.6
20260903161552 85 355 0.0 3.5 0.00 0.13 0.00 48 1016.6
20260903160044 84 360 3.5 7.0 0.00 0.13 0.00 51 1016.7
20260903154542 82 355 5.2 7.8 0.00 0.13 0.00 54 1016.6
20260903153038 81 9 5.2 10.4 0.00 0.13 0.00 55 1016.6
20260903151534 79 329 4.3 10.4 0.00 0.13 0.00 59 1016.6
20260903150034 78 342 6.1 8.7 0.00 0.13 0.00 59 1016.6
20260903144528 77 344 6.1 9.6 0.00 0.13 0.00 59 1016.6
20260903143045 77 290 6.1 7.8 0.00 0.13 0.00 61 1016.6
20260903141519 76 360 6.1 8.7 0.00 0.13 0.00 63 1016.6
20260903140022 75 355 6.1 10.4 0.00 0.13 0.00 64 1016.7
20260903134510 74 340 7.0 9.6 0.00 0.13 0.00 64 1016.6
20260903133009 74 326 4.3 9.6 0.00 0.13 0.00 65 1016.5
20260903131504 73 321 2.6 7.8 0.00 0.13 0.00 65 1016.3
20260903130000 73 319 0.9 4.3 0.00 0.13 0.00 65 1016.0
20260903124559 73 347 2.6 7.0 0.00 0.13 0.00 66 1015.8
20260903123057 73 297 3.5 10.4 0.00 0.13 0.00 64 1015.7
20260903121555 74 360 7.0 9.6 0.00 0.13 0.00 63 1015.5
20260903120055 73 302 4.3 7.0 0.00 0.13 0.00 64 1015.5
20260903114555 73 332 1.7 8.7 0.00 0.13 0.00 64 1015.5
20260903113054 73 319 5.2 10.4 0.00 0.13 0.00 64 1015.4
20260903111603 73 360 7.0 10.4 0.00 0.13 0.00 64 1015.3
20260903110053 74 360 8.7 12.2 0.00 0.13 0.00 64 1015.2
20260903104653 73 325 5.2 9.6 0.00 0.13 0.00 64 1015.2
20260903103051 73 315 3.5 7.0 0.00 0.13 0.00 65 1015.2
20260903101556 73 319 6.1 9.6 0.00 0.13 0.00 65 1015.2
20260903100053 74 360 7.0 11.3 0.00 0.13 0.00 64 1015.2
20260903094551 74 330 6.1 10.4 0.00 0.13 0.00 64 1015.2
20260903093052 74 330 4.3 9.6 0.00 0.13 0.00 64 1015.2
20260903091545 74 338 8.7 11.3 0.00 0.13 0.00 62 1015.3
20260903090044 74 323 6.1 9.6 0.00 0.13 0.00 62 1015.2
20260903084543 74 360 7.0 9.6 0.00 0.13 0.00 61 1015.3
20260903083047 75 355 8.7 11.3 0.00 0.13 0.00 59 1015.2
20260903081544 75 335 4.3 9.6 0.00 0.13 0.00 60 1015.3
20260903080040 75 360 7.8 13.0 0.00 0.13 0.00 60 1015.3
20260903074537 76 333 5.2 8.7 0.00 0.13 0.00 59 1015.4
20260903073136 76 306 4.3 7.0 0.00 0.13 0.00 57 1015.5
20260903071534 75 336 1.7 7.8 0.00 0.13 0.00 59 1015.5
20260903070034 75 334 3.5 10.4 0.00 0.13 0.00 61 1015.6
20260903064535 75 360 7.8 12.2 0.00 0.13 0.00 61 1015.6
20260903063031 75 325 7.0 11.3 0.00 0.13 0.00 63 1015.6
20260903061531 75 326 6.1 9.6 0.00 0.13 0.00 63 1015.6
20260903060028 75 293 4.3 8.7 0.00 0.13 0.00 64 1015.5
20260903054526 76 317 3.5 7.0 0.00 0.13 0.00 65 1015.5
20260903053023 76 360 7.8 11.3 0.00 0.13 0.00 63 1015.6
20260903051521 77 297 8.7 11.3 0.00 0.13 0.00 63 1015.6
20260903050019 77 301 7.0 9.6 0.00 0.13 0.00 64 1015.5
20260903044521 76 360 6.1 10.4 0.00 0.13 0.00 65 1015.5
20260903043018 77 312 6.1 9.6 0.00 0.13 0.00 65 1015.5
20260903041517 77 336 7.0 11.3 0.00 0.13 0.00 65 1015.5
20260903040016 77 360 6.1 9.6 0.00 0.13 0.00 64 1015.5
20260903034514 77 340 7.8 11.3 0.00 0.13 0.00 61 1015.4
20260903033015 77 360 4.3 7.8 0.00 0.13 0.00 65 1015.3
20260903031511 77 360 6.1 9.6 0.00 0.13 0.00 65 1015.2
20260903030011 77 360 8.7 12.2 0.00 0.13 0.00 66 1015.0
20260903024508 78 327 7.0 11.3 0.00 0.13 0.00 62 1014.7
20260903023008 79 321 7.8 12.2 0.00 0.13 0.00 55 1014.5
20260903021508 80 319 7.8 11.3 0.00 0.13 0.00 51 1014.4